sat.trackr.live / text

‹ back to catalog

STARLINK-37597

NORAD 69356 · 2026-123D

PAYLOAD ACTIVE UNKNOWN

§ Identity

Operator
Country
US
Launch date
2026-06-04
Launch site
AFETR
Launch vehicle
Mass (kg)
RCS (m²)

Purposes: comms

External: N2YO · Heavens-Above · Gunter

§ Orbital elements

Epoch: 2026-09-20T02:48:18.832032Z

Period
93.85 min
Inclination
53.1588°
Eccentricity
0.0001186
Mean motion
15.34396577 rev/d
Perigee alt
461.9 km
Apogee alt
463.5 km
Semi-major
6,840.9 km
B*
2.5746e-4
RAAN
143.3498°
Arg perigee
96.2661°
Mean anomaly
263.8477°
Rev number
1,681

§ Raw data

STARLINK-375971 69356U 26123D   26263.11688463  .00008331  00000+0  25746-3 0  99902 69356  53.1588 143.3498 0001186  96.2661 263.8477 15.34396577 16812

JSON: /api/v1/satellites/69356 · /tle

For live sub-satellite position, see the globe view (requires WebGL).

§ Visibility from observer

Set your observer location to see the next 7 days of passes ≥ 10°. The values pass through the URL so the page stays shareable.

No JS? Fill the form by hand. The geolocation button needs JavaScript.